Check out our new BloomSky Weather System.

Active alerts


No alerts


Thunder radar  blitzortung!


Rain radar more information rain snow radar


Visit our other weather sites:

Template documentation
and downloads

And another site



Weather Underground History page Text

Daily Summary for September 20, 2017 Units:  English    Metric   Both
« Previous Day
Next Day »
Daily Weekly Monthly Yearly Custom
  Current: High: Low: Average:
Temperature: 79.3 °F 80.1 °F 79.3 °F 79.7 °F
Dew Point: 77.7 °F 78.1 °F 77.4 °F 77.7 °F
Humidity: 95 % 95 % 92 % 94 %
Wind Speed: 1.0 mph 7.0 mph 0.0 mph 1.9 mph
Wind Gust: 3.0 mph 7.0 mph - -
Wind:SE - - SE
Pressure: 29.87 in 29.88 in 29.87 in -
Precipitation: 0.00 in      
Historical Graphs
 
 
Tabular Data for September 20, 2017
Time Temperature Dew Point Pressure Wind Wind Speed Wind Gust Humidity Rainfall Rate (Hourly)
00:04 80.1 °F 77.5 °F 29.87 in SE 1.0 mph 6.0 mph 92 % 0.00 in
00:09 80.1 °F 77.5 °F 29.87 in ESE 3.0 mph 6.0 mph 92 % 0.00 in
00:14 80.1 °F 77.5 °F 29.87 in SE 3.0 mph 6.0 mph 92 % 0.00 in
00:19 80.1 °F 77.5 °F 29.87 in SSE 2.0 mph 6.0 mph 92 % 0.00 in
00:24 79.9 °F 77.4 °F 29.87 in ESE 1.0 mph 6.0 mph 92 % 0.00 in
00:29 79.9 °F 77.4 °F 29.87 in East 2.0 mph 4.0 mph 92 % 0.00 in
00:34 79.9 °F 77.4 °F 29.87 in SE 2.0 mph 4.0 mph 92 % 0.00 in
00:39 79.7 °F 77.5 °F 29.87 in SSE 3.0 mph 4.0 mph 93 % 0.00 in
00:44 79.7 °F 77.5 °F 29.87 in East 3.0 mph 4.0 mph 93 % 0.00 in
00:49 79.7 °F 77.5 °F 29.87 in East 2.0 mph 5.0 mph 93 % 0.00 in
00:54 79.7 °F 77.5 °F 29.87 in ESE 1.0 mph 6.0 mph 93 % 0.00 in
00:59 79.7 °F 77.5 °F 29.87 in SE 1.0 mph 6.0 mph 93 % 0.00 in
01:04 79.7 °F 77.5 °F 29.87 in SE 1.0 mph 6.0 mph 93 % 0.00 in
01:09 79.7 °F 77.5 °F 29.88 in ESE 1.0 mph 4.0 mph 93 % 0.00 in
01:14 79.7 °F 77.5 °F 29.88 in East 2.0 mph 3.0 mph 93 % 0.00 in
01:19 79.7 °F 77.5 °F 29.87 in SE 3.0 mph 3.0 mph 93 % 0.00 in
01:24 79.7 °F 77.5 °F 29.87 in ESE 4.0 mph 4.0 mph 93 % 0.00 in
01:29 79.7 °F 77.5 °F 29.87 in ESE 2.0 mph 4.0 mph 93 % 0.00 in
01:34 79.7 °F 77.5 °F 29.87 in East 2.0 mph 4.0 mph 93 % 0.00 in
01:39 79.7 °F 77.5 °F 29.87 in Calm   5.0 mph 93 % 0.00 in
01:44 79.9 °F 77.7 °F 29.88 in SE 1.0 mph 5.0 mph 93 % 0.00 in
01:49 79.9 °F 77.7 °F 29.88 in SE 1.0 mph 5.0 mph 93 % 0.00 in
01:54 79.9 °F 78.1 °F 29.88 in ESE 1.0 mph 3.0 mph 94 % 0.00 in
01:59 79.9 °F 78.1 °F 29.88 in SE 3.0 mph 4.0 mph 94 % 0.00 in
02:04 79.9 °F 78.1 °F 29.88 in SE 2.0 mph 5.0 mph 94 % 0.00 in
02:09 79.9 °F 78.1 °F 29.88 in SSW 2.0 mph 5.0 mph 94 % 0.00 in
02:14 79.9 °F 78.1 °F 29.88 in South 3.0 mph 5.0 mph 94 % 0.00 in
02:19 79.7 °F 77.9 °F 29.88 in South 7.0 mph 7.0 mph 94 % 0.00 in
02:24 79.5 °F 77.7 °F 29.88 in SSE 3.0 mph 7.0 mph 94 % 0.00 in
02:30 79.5 °F 77.7 °F 29.87 in South 2.0 mph 7.0 mph 94 % 0.00 in
02:35 79.5 °F 77.7 °F 29.87 in South 4.0 mph 7.0 mph 94 % 0.00 in
02:40 79.5 °F 77.7 °F 29.87 in SE 1.0 mph 6.0 mph 94 % 0.00 in
02:45 79.5 °F 77.7 °F 29.87 in South 2.0 mph 6.0 mph 94 % 0.00 in
02:50 79.5 °F 77.9 °F 29.88 in SE 2.0 mph 6.0 mph 95 % 0.00 in
02:55 79.5 °F 77.9 °F 29.87 in ESE 1.0 mph 4.0 mph 95 % 0.00 in
03:00 79.5 °F 77.9 °F 29.88 in SSE 2.0 mph 3.0 mph 95 % 0.00 in
03:05 79.5 °F 77.9 °F 29.88 in Calm   3.0 mph 95 % 0.00 in
03:10 79.5 °F 77.9 °F 29.88 in SSW 1.0 mph 3.0 mph 95 % 0.00 in
03:15 79.5 °F 77.9 °F 29.87 in SE 1.0 mph 3.0 mph 95 % 0.00 in
03:20 79.5 °F 77.9 °F 29.88 in SSE 1.0 mph 3.0 mph 95 % 0.00 in
03:25 79.5 °F 77.9 °F 29.87 in SSE 1.0 mph 3.0 mph 95 % 0.00 in
03:30 79.7 °F 78.1 °F 29.87 in SSE 1.0 mph 4.0 mph 95 % 0.00 in
03:35 79.7 °F 78.1 °F 29.87 in ESE 2.0 mph 4.0 mph 95 % 0.00 in
03:40 79.7 °F 77.9 °F 29.87 in South 1.0 mph 4.0 mph 94 % 0.00 in
03:45 79.7 °F 77.9 °F 29.87 in SSE 3.0 mph 4.0 mph 94 % 0.00 in
03:50 79.5 °F 77.7 °F 29.87 in East 2.0 mph 3.0 mph 94 % 0.00 in
03:55 79.5 °F 77.9 °F 29.87 in Calm   4.0 mph 95 % 0.00 in
04:00 79.5 °F 77.9 °F 29.87 in ESE 1.0 mph 4.0 mph 95 % 0.00 in
04:05 79.3 °F 77.7 °F 29.87 in ESE 2.0 mph 4.0 mph 95 % 0.00 in
04:10 79.3 °F 77.7 °F 29.87 in ESE 2.0 mph 3.0 mph 95 % 0.00 in
04:15 79.3 °F 77.7 °F 29.87 in SE 1.0 mph 3.0 mph 95 % 0.00 in
Spring, Texas: Villages of Bridgestone
Compliments of Weather Underground - 1.5 mb

Script developed by  Jim McMurry - jmcmurry@mwt.net Adapted for the template by  Wim van der Kuil - Leuven-Template.eu

You find our weather info also at:

UK Metoffice

WeatherCloud

Weather Underground

Mid-South Weather Network

AWEKAS

Citizen Weather Observer Program (CWOP)

HAMweather, WeatherForYou, PWS Weather

Equipment we use:

Weather-station
Davis Vantage Vue

Weather-program
Meteohub

Weather-server
Debian 7.9 x86 (Guest)

Provider
DreamHost

Davis Vantage Vue

Meteohub

Debian 7.9 x86 (Guest)

DreamHost